This demonstration page uses our WeatherBlox Daily Observations layout. Learn more.

Left ArrowRight Arrow

Hourly Observations for January 17, 2020

Temp ( °F °C ) Dew Point ( °F °C ) Humidity (%) Winds ( mph kmh ) Pressure ( in mb ) Visibility ( mi km ) Precip ( " mm )
12:53 am 00:53 Cloudy with Light Snow 19 -7.2 12 -11.1 74 74 SE 10 17 30.49 1032 10 16 0.00 0.00
1:43 am 01:43 Cloudy with Light Snow 19 -7.2 14 -10 81 81 SSE 10 17 30.52 1033 2 3 0.01 0.25
1:50 am 01:50 Cloudy with Light Snow 19 -7 14 -10 79 79 SSE 12 19 30.50 1033 2 3 0.01 0.25
1:53 am 01:53 Cloudy with Light Snow 19 -7.2 14 -10 81 81 SSE 12 19 30.46 1032 2 3 0.01 0.25
2:06 am 02:06 Cloudy with Light Snow 19 -7 16 -9 86 86 SSE 12 19 30.49 1033 2 2 0.00 0.00
2:46 am 02:46 Cloudy with Light Snow 19 -7.2 15 -9.4 84 84 SSE 10 17 30.48 1032 3 4 0.02 0.51
2:49 am 02:49 Cloudy with Light Snow 19 -7 16 -9 86 86 SE 10 17 30.47 1032 4 6 0.02 0.51
2:53 am 02:53 Cloudy with Light Snow 19 -7.2 16 -8.9 88 88 SSE 12 19 30.42 1030 6 10 0.02 0.51
3:39 am 03:39 Cloudy with Light Freezing Rain 20 -6.7 17 -8.3 89 89 SE 17 28 30.41 1030 6 10 0.01 0.25
3:47 am 03:47 Cloudy with Light Snow 19 -7 18 -8 93 93 SE 15 24 30.40 1030 5 8 0.01 0.25
3:53 am 03:53 Cloudy with Light Snow 20 -6.7 17 -8.3 89 89 SE 14 22 30.35 1028 4 6 0.01 0.25
4:04 am 04:04 Cloudy with Light Snow 19 -7 18 -8 93 93 SE 16 26 30.39 1029 2 3 0.00 0.00
4:12 am 04:12 Cloudy with Light Snow 19 -7 18 -8 93 93 SE 14 22 30.39 1029 2 3 0.00 0.00
4:26 am 04:26 Cloudy with Light Snow 21 -6.1 18 -7.8 88 88 SE 14 22 30.38 1029 2 2 0.01 0.25
4:37 am 04:37 Cloudy with Light Snow 21 -6.1 18 -7.8 88 88 SE 13 20 30.37 1028 1 2 0.02 0.51
4:47 am 04:47 Mostly Cloudy with Light Snow 21 -6 18 -8 86 86 SE 14 22 30.37 1028 1 1 0.02 0.51
4:53 am 04:53 Cloudy with Snow 21 -6.1 18 -7.8 88 88 SE 13 20 30.32 1027 1 1 0.03 0.76
5:08 am 05:08 Cloudy with Light Snow 21 -6.1 18 -7.8 88 88 SE 13 20 30.36 1028 2 2 0.01 0.25
5:37 am 05:37 Mostly Cloudy with Light Snow 21 -6.1 18 -7.8 88 88 SE 13 20 30.33 1027 1 1 0.03 0.76
5:53 am 05:53 Mostly Cloudy with Light Snow 21 -6.1 18 -7.8 88 88 SE 14 22 30.27 1025 1 2 0.03 0.76
6:05 am 06:05 Mostly Cloudy with Light Snow 21 -6.1 18 -7.8 88 88 SE 15 24 30.31 1026 1 1 0.01 0.25
6:41 am 06:41 Mostly Cloudy with Light Snow 22 -5.6 19 -7.2 89 89 SE 15 24 30.27 1025 1 2 0.02 0.51
6:53 am 06:53 Cloudy with Light Freezing Rain 23 -5 20 -6.7 88 88 SE 15 24 30.22 1023 2 3 0.02 0.51
6:58 am 06:58 Cloudy with Light Freezing Rain 23 -5 21 -6 93 93 SE 16 26 30.26 1025 3 5 0.00 0.00
7:53 am 07:53 Cloudy 25 -3.9 23 -5 92 92 SSE 17 28 30.19 1022 7 11 0.01 0.25
8:03 am 08:03 Cloudy 25 -3.9 23 -5 92 92 SSE 17 28 30.21 1023 8 13 0.00 0.00
8:35 am 08:35 Cloudy with Mist and Fog 26 -3.3 24 -4.4 92 92 SSE 16 26 30.21 1023 3 4 0.00 0.00
8:43 am 08:43 Cloudy with Mist and Fog 26 -3.3 24 -4.4 92 92 SSE 15 24 30.20 1023 4 6 0.00 0.00
8:53 am 08:53 Cloudy with Mist and Fog 26 -3.3 24 -4.4 92 92 SSE 16 26 30.17 1022 5 8 0.00 0.00
9:53 am 09:53 Cloudy with Mist and Fog 29 -1.7 27 -2.8 92 92 SSE 18 30 30.09 1019 3 4 0.00 0.00
10:49 am 10:49 Cloudy with Light Wintry Mix 30 -1 28 -2 93 93 SSE 14 22 30.09 1019 2 2 0.00 0.00
10:50 am 10:50 Cloudy with Light Wintry Mix 30 -1.1 28 -2.2 92 92 SSE 17 28 30.08 1019 2 2 0.00 0.00
11:01 am 11:01 Cloudy with Mist and Fog 30 -1.1 28 -2.2 92 92 SSE 17 28 30.07 1018 2 3 0.00 0.00
11:11 am 11:11 Cloudy with Light Snow 30 -1.1 28 -2.2 92 92 SSE 16 26 30.07 1018 2 2 0.00 0.00
11:31 am 11:31 Cloudy with Light Freezing Rain 31 -0.6 29 -1.7 92 92 SSE 18 30 30.04 1017 2 3 0.00 0.00
11:53 am 11:53 Cloudy with Light Freezing Rain 31 -0.6 29 -1.7 92 92 S 17 28 30.01 1016 1 2 0.00 0.00
12:30 pm 12:30 Cloudy with Light Wintry Mix 32 0 30 -1.1 92 92 S 15 24 29.98 1015 1 2 0.00 0.00
12:45 pm 12:45 Cloudy with Light Wintry Mix 32 0 31 -0.6 96 96 S 15 24 29.95 1014 1 2 0.00 0.00
12:53 pm 12:53 Cloudy with Light Wintry Mix 32 0 31 -0.6 96 96 S 16 26 29.93 1014 2 2 0.00 0.00
1:00 pm 13:00 Cloudy with Mist and Fog 32 0 30 -1.1 92 92 S 17 28 29.93 1014 2 3 0.00 0.00
1:34 pm 13:34 Cloudy with Mist and Fog 32 0 30 -1.1 92 92 S 15 24 29.91 1013 2 3 0.00 0.00
1:51 pm 13:51 Cloudy with Mist and Fog 32 0 30 -1 93 93 S 14 22 29.91 1013 2 3 0.00 0.00
1:53 pm 13:53 Cloudy with Mist and Fog 32 0 31 -0.6 96 96 S 16 26 29.90 1012 2 3 0.00 0.00
2:09 pm 14:09 Cloudy with Mist and Fog 32 0 31 -0.6 96 96 S 16 26 29.89 1012 2 3 0.00 0.00
2:53 pm 14:53 Cloudy with Mist and Fog 32 0 31 -0.6 96 96 S 15 24 29.85 1011 2 3 0.00 0.00
3:32 pm 15:32 Cloudy with Mist and Fog 32 0 31 -0.6 96 96 S 13 20 29.85 1011 2 3 0.00 0.00
3:53 pm 15:53 Cloudy with Mist and Fog 32 0 31 -0.6 96 96 S 12 19 29.82 1010 2 3 0.00 0.00
4:10 pm 16:10 Cloudy with Mist and Fog 32 0 31 -0.6 96 96 S 9 15 29.84 1011 2 2 0.00 0.00
4:29 pm 16:29 Cloudy with Mist and Fog 32 0 31 -0.6 96 96 S 12 19 29.82 1010 2 3 0.00 0.00
4:53 pm 16:53 Cloudy with Mist and Fog 32 0 31 -0.6 96 96 S 9 15 29.81 1010 2 3 0.00 0.00
5:42 pm 17:42 Cloudy with Mist and Fog 32 0 31 -0.6 96 96 S 7 11 29.84 1011 3 4 0.00 0.00
5:50 pm 17:50 Cloudy with Mist and Fog 32 0 30 -1 93 93 S 5 7 29.84 1011 3 4 0.00 0.00
5:53 pm 17:53 Cloudy with Mist and Fog 32 0 31 -0.6 96 96 S 7 11 29.82 1010 3 5 0.00 0.00
6:08 pm 18:08 Cloudy with Mist and Fog 32 0 31 -0.6 96 96 SSW 7 11 29.85 1011 3 4 0.00 0.00
6:16 pm 18:16 Cloudy with Mist and Fog 32 0 31 -0.6 96 96 S 6 9 29.85 1011 3 5 0.00 0.00
6:53 pm 18:53 Cloudy with Mist and Fog 32 0 31 -0.6 96 96 S 6 9 29.82 1010 4 6 0.00 0.00
7:08 pm 19:08 Cloudy with Mist and Fog 32 0 31 -0.6 96 96 S 7 11 29.84 1011 5 8 0.00 0.00
7:53 pm 19:53 Cloudy 32 0 31 -0.6 96 96 S 5 7 29.80 1009 9 14 0.00 0.00
8:53 pm 20:53 Cloudy 33 0.6 31 -0.6 92 92 SSW 7 11 29.79 1009 10 16 0.00 0.00
9:53 pm 21:53 Cloudy 33 0.6 32 0 96 96 WSW 10 17 29.83 1010 7 11 0.00 0.00
10:53 pm 22:53 Cloudy 33 0.6 31 -0.6 92 92 W 12 19 29.83 1010 10 16 0.00 0.00
11:23 pm 23:23 Cloudy 33 0.6 31 -0.6 92 92 WNW 14 22 29.88 1012 10 16 0.00 0.00
11:53 pm 23:53 Cloudy 34 1.1 31 -0.6 89 89 NW 21 33 29.86 1011 10 16 0.00 0.00

Powered by AerisWeather